Time,TemperatureF,DewpointF,PressureIn,WindDirection,WindDirectionDegrees,WindSpeedMPH,WindSpeedGustMPH,Humidity,HourlyPrecipIn,Conditions,Clouds,dailyrainin,SoftwareType,DateUTC
2013-10-24 00:01:00,34.9,29.2,29.92,WNW,292,1.1,4.5,79,0.00,,,0.00,WUHU21623XXSP,2013-10-24 05:01:00,
2013-10-24 00:06:00,34.9,29.2,29.93,West,270,3.4,6.0,79,0.00,,,0.00,WUHU21623XXSP,2013-10-24 05:06:00,
2013-10-24 00:11:00,34.9,29.2,29.93,NNW,337,2.5,6.0,79,0.00,,,0.00,WUHU21623XXSP,2013-10-24 05:11:00,
2013-10-24 00:16:00,34.9,29.2,29.93,NW,315,3.1,5.4,79,0.00,,,0.00,WUHU21623XXSP,2013-10-24 05:16:00,
2013-10-24 00:21:00,34.9,29.2,29.93,WSW,247,0.0,4.0,79,0.00,,,0.00,WUHU21623XXSP,2013-10-24 05:21:00,
2013-10-24 00:26:00,34.9,29.2,29.92,NW,315,2.5,4.7,79,0.00,,,0.00,WUHU21623XXSP,2013-10-24 05:26:00,
2013-10-24 00:31:00,34.9,29.2,29.92,WNW,292,1.1,5.4,79,0.00,,,0.00,WUHU21623XXSP,2013-10-24 05:31:00,
2013-10-24 00:36:00,34.9,29.2,29.93,WNW,292,3.6,6.3,79,0.00,,,0.00,WUHU21623XXSP,2013-10-24 05:36:00,
2013-10-24 00:41:00,34.9,29.2,29.92,WNW,292,3.1,6.3,79,0.00,,,0.00,WUHU21623XXSP,2013-10-24 05:41:00,
2013-10-24 00:46:00,34.9,29.2,29.93,WNW,292,2.0,5.8,79,0.00,,,0.00,WUHU21623XXSP,2013-10-24 05:46:00,
2013-10-24 00:51:00,34.9,29.2,29.93,NNW,337,6.7,9.4,79,0.00,,,0.00,WUHU21623XXSP,2013-10-24 05:51:00,
2013-10-24 00:56:00,34.9,29.2,29.93,NW,315,5.1,9.4,79,0.00,,,0.00,WUHU21623XXSP,2013-10-24 05:56:00,
2013-10-24 01:01:00,34.7,29.0,29.93,NW,315,2.2,6.0,79,0.00,,,0.00,WUHU21623XXSP,2013-10-24 06:01:00,
2013-10-24 01:06:00,34.7,29.0,29.93,North,0,1.1,6.0,79,0.00,,,0.00,WUHU21623XXSP,2013-10-24 06:06:00,
2013-10-24 01:11:00,34.7,29.0,29.93,NNW,337,3.6,8.5,79,0.00,,,0.00,WUHU21623XXSP,2013-10-24 06:11:00,
2013-10-24 01:16:00,34.7,29.0,29.93,WNW,292,2.5,8.5,79,0.00,,,0.00,WUHU21623XXSP,2013-10-24 06:16:00,
2013-10-24 01:21:00,34.7,29.0,29.93,WNW,292,1.3,5.4,79,0.00,,,0.00,WUHU21623XXSP,2013-10-24 06:21:00,
2013-10-24 01:26:00,34.5,28.8,29.93,WNW,292,0.0,4.9,79,0.00,,,0.00,WUHU21623XXSP,2013-10-24 06:26:00,
2013-10-24 01:31:00,34.5,28.8,29.93,NW,315,5.1,6.3,79,0.00,,,0.00,WUHU21623XXSP,2013-10-24 06:31:00,
2013-10-24 01:36:00,34.5,29.1,29.93,West,270,0.9,6.3,80,0.00,,,0.00,WUHU21623XXSP,2013-10-24 06:36:00,
2013-10-24 01:41:00,34.5,29.1,29.93,West,270,2.5,7.2,80,0.00,,,0.00,WUHU21623XXSP,2013-10-24 06:41:00,
2013-10-24 01:46:00,34.5,29.1,29.93,WSW,247,2.7,7.2,80,0.00,,,0.00,WUHU21623XXSP,2013-10-24 06:46:00,
2013-10-24 01:51:00,34.5,29.1,29.93,North,0,0.0,6.5,80,0.00,,,0.00,WUHU21623XXSP,2013-10-24 06:51:00,
2013-10-24 01:56:00,34.3,28.9,29.94,NW,315,2.7,4.9,80,0.00,,,0.00,WUHU21623XXSP,2013-10-24 06:56:00,
2013-10-24 02:01:00,34.3,28.9,29.94,NNW,337,1.8,4.7,80,0.00,,,0.00,WUHU21623XXSP,2013-10-24 07:01:00,
2013-10-24 02:06:00,34.3,28.9,29.93,NW,315,3.1,5.4,80,0.00,,,0.00,WUHU21623XXSP,2013-10-24 07:06:00,
2013-10-24 02:11:00,34.3,28.9,29.94,NNW,337,3.1,5.4,80,0.00,,,0.00,WUHU21623XXSP,2013-10-24 07:11:00,
2013-10-24 02:16:00,34.3,28.9,29.94,WNW,292,1.6,6.3,80,0.00,,,0.00,WUHU21623XXSP,2013-10-24 07:16:00,
2013-10-24 02:21:00,34.3,28.9,29.94,NW,315,1.8,6.3,80,0.00,,,0.00,WUHU21623XXSP,2013-10-24 07:21:00,
2013-10-24 02:26:00,34.3,28.9,29.94,NNW,337,0.0,5.4,80,0.00,,,0.00,WUHU21623XXSP,2013-10-24 07:26:00,
2013-10-24 02:31:00,34.3,28.9,29.94,NW,315,0.0,5.4,80,0.00,,,0.00,WUHU21623XXSP,2013-10-24 07:31:00,
2013-10-24 02:36:00,34.2,28.8,29.94,WNW,292,1.3,3.6,80,0.00,,,0.00,WUHU21623XXSP,2013-10-24 07:36:00,
2013-10-24 02:41:00,34.0,28.6,29.94,West,270,0.0,4.0,80,0.00,,,0.00,WUHU21623XXSP,2013-10-24 07:41:00,
2013-10-24 02:46:00,34.0,28.6,29.94,NW,315,2.9,4.0,80,0.00,,,0.00,WUHU21623XXSP,2013-10-24 07:46:00,
2013-10-24 02:51:00,33.8,28.4,29.94,West,270,1.6,3.6,80,0.00,,,0.00,WUHU21623XXSP,2013-10-24 07:51:00,
2013-10-24 02:56:00,33.8,28.7,29.94,WNW,292,2.5,4.5,81,0.00,,,0.00,WUHU21623XXSP,2013-10-24 07:56:00,
2013-10-24 03:01:00,33.6,28.5,29.94,WNW,292,2.5,4.5,81,0.00,,,0.00,WUHU21623XXSP,2013-10-24 08:01:00,
2013-10-24 03:06:00,33.6,28.5,29.94,NNW,337,0.9,3.8,81,0.00,,,0.00,WUHU21623XXSP,2013-10-24 08:06:00,
2013-10-24 03:11:00,33.4,28.3,29.94,NW,315,2.2,6.7,81,0.00,,,0.00,WUHU21623XXSP,2013-10-24 08:11:00,
2013-10-24 03:16:00,33.4,28.3,29.95,WNW,292,1.1,6.7,81,0.00,,,0.00,WUHU21623XXSP,2013-10-24 08:16:00,
2013-10-24 03:21:00,33.3,28.2,29.94,WNW,292,2.2,6.3,81,0.00,,,0.00,WUHU21623XXSP,2013-10-24 08:21:00,
2013-10-24 03:26:00,33.1,28.0,29.94,WNW,292,0.0,6.3,81,0.00,,,0.00,WUHU21623XXSP,2013-10-24 08:26:00,
2013-10-24 03:31:00,33.1,28.0,29.94,WNW,292,2.0,5.4,81,0.00,,,0.00,WUHU21623XXSP,2013-10-24 08:31:00,
2013-10-24 03:36:00,33.1,28.0,29.95,WNW,292,1.8,4.7,81,0.00,,,0.00,WUHU21623XXSP,2013-10-24 08:36:00,
2013-10-24 03:41:00,33.1,28.0,29.95,NW,315,2.0,4.7,81,0.00,,,0.00,WUHU21623XXSP,2013-10-24 08:41:00,
2013-10-24 03:46:00,33.1,28.0,29.95,NNW,337,0.0,3.6,81,0.00,,,0.00,WUHU21623XXSP,2013-10-24 08:46:00,
2013-10-24 03:51:00,33.1,28.0,29.95,West,270,2.0,5.4,81,0.00,,,0.00,WUHU21623XXSP,2013-10-24 08:51:00,
2013-10-24 03:56:00,33.1,28.0,29.95,WNW,292,2.5,5.4,81,0.00,,,0.00,WUHU21623XXSP,2013-10-24 08:56:00,
2013-10-24 04:01:00,33.1,28.0,29.96,WSW,247,2.7,4.9,81,0.00,,,0.00,WUHU21623XXSP,2013-10-24 09:01:00,
2013-10-24 04:06:00,33.1,28.3,29.96,West,270,1.1,3.8,82,0.00,,,0.00,WUHU21623XXSP,2013-10-24 09:06:00,
2013-10-24 04:11:00,33.1,28.3,29.96,WNW,292,1.6,4.7,82,0.00,,,0.00,WUHU21623XXSP,2013-10-24 09:11:00,
2013-10-24 04:16:00,33.1,28.3,29.96,West,270,2.0,4.7,82,0.00,,,0.00,WUHU21623XXSP,2013-10-24 09:16:00,
2013-10-24 04:21:00,33.1,28.3,29.96,WNW,292,0.0,6.0,82,0.00,,,0.00,WUHU21623XXSP,2013-10-24 09:21:00,
2013-10-24 04:26:00,33.1,28.3,29.96,West,270,0.0,6.0,82,0.00,,,0.00,WUHU21623XXSP,2013-10-24 09:26:00,
2013-10-24 04:31:00,33.1,28.3,29.96,WNW,292,0.7,4.5,82,0.00,,,0.00,WUHU21623XXSP,2013-10-24 09:31:00,
2013-10-24 04:36:00,33.1,28.3,29.96,West,270,0.0,4.5,82,0.00,,,0.00,WUHU21623XXSP,2013-10-24 09:36:00,
2013-10-24 04:41:00,33.1,28.0,29.97,NW,315,2.2,4.5,81,0.00,,,0.00,WUHU21623XXSP,2013-10-24 09:41:00,
2013-10-24 04:46:00,33.1,28.0,29.97,WNW,292,1.1,4.5,81,0.00,,,0.00,WUHU21623XXSP,2013-10-24 09:46:00,
2013-10-24 04:51:00,33.1,28.0,29.97,NW,315,4.5,4.5,81,0.00,,,0.00,WUHU21623XXSP,2013-10-24 09:51:00,
2013-10-24 04:56:00,33.1,28.0,29.97,WSW,247,1.1,5.8,81,0.00,,,0.00,WUHU21623XXSP,2013-10-24 09:56:00,
2013-10-24 05:01:00,33.1,28.0,29.97,WNW,292,2.9,5.8,81,0.00,,,0.00,WUHU21623XXSP,2013-10-24 10:01:00,
2013-10-24 05:06:00,33.1,28.0,29.97,WNW,292,2.2,4.9,81,0.00,,,0.00,WUHU21623XXSP,2013-10-24 10:06:00,
2013-10-24 05:11:00,33.1,28.0,29.97,West,270,1.6,4.9,81,0.00,,,0.00,WUHU21623XXSP,2013-10-24 10:11:00,
2013-10-24 05:16:00,33.1,28.0,29.97,NNW,337,1.6,4.0,81,0.00,,,0.00,WUHU21623XXSP,2013-10-24 10:16:00,
2013-10-24 05:21:00,33.1,28.0,29.98,WNW,292,2.0,4.0,81,0.00,,,0.00,WUHU21623XXSP,2013-10-24 10:21:00,
2013-10-24 05:26:00,32.9,27.8,29.98,NW,315,4.5,5.6,81,0.00,,,0.00,WUHU21623XXSP,2013-10-24 10:26:00,
2013-10-24 05:31:00,32.9,27.8,29.97,West,270,2.9,5.6,81,0.00,,,0.00,WUHU21623XXSP,2013-10-24 10:31:00,
2013-10-24 05:36:00,32.9,27.8,29.98,NW,315,0.0,5.4,81,0.00,,,0.00,WUHU21623XXSP,2013-10-24 10:36:00,
2013-10-24 05:41:00,32.7,27.6,29.98,NW,315,0.7,5.4,81,0.00,,,0.00,WUHU21623XXSP,2013-10-24 10:41:00,
2013-10-24 05:46:00,32.7,27.6,29.99,WNW,292,1.6,4.9,81,0.00,,,0.00,WUHU21623XXSP,2013-10-24 10:46:00,
2013-10-24 05:51:00,32.7,27.6,29.99,WSW,247,3.1,6.3,81,0.00,,,0.00,WUHU21623XXSP,2013-10-24 10:51:00,
2013-10-24 05:56:00,32.7,27.6,29.99,NW,315,2.0,6.3,81,0.00,,,0.00,WUHU21623XXSP,2013-10-24 10:56:00,
2013-10-24 06:01:00,32.5,27.4,29.99,West,270,3.1,3.4,81,0.00,,,0.00,WUHU21623XXSP,2013-10-24 11:01:00,
2013-10-24 06:06:00,32.5,27.4,29.99,North,0,3.4,3.8,81,0.00,,,0.00,WUHU21623XXSP,2013-10-24 11:06:00,
2013-10-24 06:11:00,32.5,27.4,29.99,West,270,3.8,5.1,81,0.00,,,0.00,WUHU21623XXSP,2013-10-24 11:11:00,
2013-10-24 06:16:00,32.7,27.6,29.99,WNW,292,1.3,7.4,81,0.00,,,0.00,WUHU21623XXSP,2013-10-24 11:16:00,
2013-10-24 06:21:00,32.7,27.6,29.99,NW,315,2.5,7.4,81,0.00,,,0.00,WUHU21623XXSP,2013-10-24 11:21:00,
2013-10-24 06:26:00,32.5,27.4,29.99,WNW,292,3.1,6.0,81,0.00,,,0.00,WUHU21623XXSP,2013-10-24 11:26:00,
2013-10-24 06:31:00,32.5,27.4,29.99,WNW,292,0.0,6.0,81,0.00,,,0.00,WUHU21623XXSP,2013-10-24 11:31:00,
2013-10-24 06:36:00,32.5,27.4,29.99,West,270,2.5,5.1,81,0.00,,,0.00,WUHU21623XXSP,2013-10-24 11:36:00,
2013-10-24 06:41:00,32.5,27.4,30.00,WNW,292,4.3,4.5,81,0.00,,,0.00,WUHU21623XXSP,2013-10-24 11:41:00,
2013-10-24 06:46:00,32.5,27.4,30.00,NNW,337,3.4,5.1,81,0.00,,,0.00,WUHU21623XXSP,2013-10-24 11:46:00,
2013-10-24 06:51:00,32.5,27.1,30.00,WNW,292,2.2,5.4,80,0.00,,,0.00,WUHU21623XXSP,2013-10-24 11:51:00,
2013-10-24 06:56:00,32.4,27.0,30.01,WNW,292,2.7,8.5,80,0.00,,,0.00,WUHU21623XXSP,2013-10-24 11:56:00,
2013-10-24 07:01:00,32.4,27.0,30.00,NW,315,5.6,8.5,80,0.00,,,0.00,WUHU21623XXSP,2013-10-24 12:01:00,
2013-10-24 07:06:00,32.4,27.0,30.00,WNW,292,4.5,7.8,80,0.00,,,0.00,WUHU21623XXSP,2013-10-24 12:06:00,
2013-10-24 07:11:00,32.2,26.8,30.00,WNW,292,5.1,6.9,80,0.00,,,0.00,WUHU21623XXSP,2013-10-24 12:11:00,
2013-10-24 07:16:00,32.2,26.8,30.01,West,270,3.8,5.4,80,0.00,,,0.00,WUHU21623XXSP,2013-10-24 12:16:00,
2013-10-24 07:21:00,32.2,26.8,30.01,WNW,292,3.4,5.1,80,0.00,,,0.00,WUHU21623XXSP,2013-10-24 12:21:00,
2013-10-24 07:26:00,31.8,26.4,30.01,West,270,3.1,5.8,80,0.00,,,0.00,WUHU21623XXSP,2013-10-24 12:26:00,
2013-10-24 07:31:00,31.8,26.4,30.01,WNW,292,3.4,6.9,80,0.00,,,0.00,WUHU21623XXSP,2013-10-24 12:31:00,
2013-10-24 07:36:00,31.8,26.7,30.01,West,270,2.0,6.9,81,0.00,,,0.00,WUHU21623XXSP,2013-10-24 12:36:00,
2013-10-24 07:41:00,31.8,26.7,30.02,West,270,2.2,6.3,81,0.00,,,0.00,WUHU21623XXSP,2013-10-24 12:41:00,
2013-10-24 07:46:00,31.6,26.5,30.01,NW,315,2.2,6.9,81,0.00,,,0.00,WUHU21623XXSP,2013-10-24 12:46:00,
2013-10-24 07:51:00,31.6,26.5,30.02,WNW,292,2.5,6.9,81,0.00,,,0.00,WUHU21623XXSP,2013-10-24 12:51:00,
2013-10-24 07:56:00,31.6,26.5,30.02,WNW,292,4.9,6.0,81,0.00,,,0.00,WUHU21623XXSP,2013-10-24 12:56:00,
2013-10-24 08:01:00,31.3,26.3,30.02,WNW,292,3.1,6.0,81,0.00,,,0.00,WUHU21623XXSP,2013-10-24 13:01:00,
2013-10-24 08:06:00,31.3,26.6,30.02,West,270,2.2,5.6,82,0.00,,,0.00,WUHU21623XXSP,2013-10-24 13:06:00,
2013-10-24 08:11:00,31.1,26.4,30.03,West,270,0.0,5.1,82,0.00,,,0.00,WUHU21623XXSP,2013-10-24 13:11:00,
2013-10-24 08:16:00,30.9,26.2,30.03,WNW,292,3.8,6.3,82,0.00,,,0.00,WUHU21623XXSP,2013-10-24 13:16:00,
2013-10-24 08:21:00,30.9,26.2,30.03,West,270,0.0,6.3,82,0.00,,,0.00,WUHU21623XXSP,2013-10-24 13:21:00,
2013-10-24 08:26:00,30.9,26.5,30.03,WNW,292,2.0,5.1,83,0.00,,,0.00,WUHU21623XXSP,2013-10-24 13:26:00,
2013-10-24 08:31:00,31.1,26.6,30.03,WSW,247,3.8,6.3,83,0.00,,,0.00,WUHU21623XXSP,2013-10-24 13:31:00,
2013-10-24 08:36:00,31.3,26.8,30.03,WNW,292,3.6,6.3,83,0.00,,,0.00,WUHU21623XXSP,2013-10-24 13:36:00,
2013-10-24 08:41:00,31.6,26.8,30.04,West,270,1.6,5.1,82,0.00,,,0.00,WUHU21623XXSP,2013-10-24 13:41:00,
2013-10-24 08:46:00,31.8,27.0,30.04,SSW,202,1.1,9.6,82,0.00,,,0.00,WUHU21623XXSP,2013-10-24 13:46:00,
2013-10-24 08:51:00,32.2,27.4,30.04,NW,315,5.8,9.6,82,0.00,,,0.00,WUHU21623XXSP,2013-10-24 13:51:00,
2013-10-24 08:56:00,32.7,27.6,30.04,North,0,1.3,6.7,81,0.00,,,0.00,WUHU21623XXSP,2013-10-24 13:56:00,
2013-10-24 09:01:00,33.6,28.2,30.04,NW,315,1.1,6.5,80,0.00,,,0.00,WUHU21623XXSP,2013-10-24 14:01:00,
2013-10-24 09:06:00,34.3,28.6,30.04,WNW,292,5.4,8.3,79,0.00,,,0.00,WUHU21623XXSP,2013-10-24 14:06:00,
2013-10-24 09:11:00,35.4,29.3,30.04,WNW,292,4.0,8.3,78,0.00,,,0.00,WUHU21623XXSP,2013-10-24 14:11:00,
2013-10-24 09:16:00,36.0,29.3,30.04,West,270,3.6,5.6,76,0.00,,,0.00,WUHU21623XXSP,2013-10-24 14:16:00,
2013-10-24 09:21:00,36.1,29.0,30.04,WNW,292,4.7,8.7,75,0.00,,,0.00,WUHU21623XXSP,2013-10-24 14:21:00,
2013-10-24 09:26:00,36.7,29.3,30.04,West,270,4.0,8.7,74,0.00,,,0.00,WUHU21623XXSP,2013-10-24 14:26:00,
2013-10-24 09:31:00,37.0,28.9,30.04,NNW,337,1.3,11.9,72,0.00,,,0.00,WUHU21623XXSP,2013-10-24 14:31:00,
2013-10-24 09:36:00,37.2,29.4,30.05,WSW,247,6.7,11.9,73,0.00,,,0.00,WUHU21623XXSP,2013-10-24 14:36:00,
2013-10-24 09:41:00,37.9,29.8,30.04,NW,315,2.7,11.2,72,0.00,,,0.00,WUHU21623XXSP,2013-10-24 14:41:00,
2013-10-24 09:46:00,38.5,30.0,30.04,NW,315,7.4,8.9,71,0.00,,,0.00,WUHU21623XXSP,2013-10-24 14:46:00,
2013-10-24 09:51:00,39.0,30.5,30.04,NNW,337,2.7,9.6,71,0.00,,,0.00,WUHU21623XXSP,2013-10-24 14:51:00,
2013-10-24 09:56:00,39.6,29.6,30.04,North,0,7.6,10.5,67,0.00,,,0.00,WUHU21623XXSP,2013-10-24 14:56:00,
2013-10-24 10:01:00,39.7,28.9,30.05,NW,315,6.5,11.2,65,0.00,,,0.00,WUHU21623XXSP,2013-10-24 15:01:00,
2013-10-24 10:06:00,38.8,28.8,30.05,NNW,337,6.0,11.2,67,0.00,,,0.00,WUHU21623XXSP,2013-10-24 15:06:00,
2013-10-24 10:11:00,38.5,28.6,30.05,WNW,292,2.0,10.7,67,0.00,,,0.00,WUHU21623XXSP,2013-10-24 15:11:00,
2013-10-24 10:16:00,39.0,28.7,30.05,NNW,337,3.6,11.6,66,0.00,,,0.00,WUHU21623XXSP,2013-10-24 15:16:00,
2013-10-24 10:21:00,39.6,29.2,30.05,NNW,337,5.1,11.6,66,0.00,,,0.00,WUHU21623XXSP,2013-10-24 15:21:00,
2013-10-24 10:26:00,39.2,28.8,30.05,WNW,292,5.6,10.3,66,0.00,,,0.00,WUHU21623XXSP,2013-10-24 15:26:00,
2013-10-24 10:31:00,39.4,29.4,30.06,WNW,292,1.6,8.3,67,0.00,,,0.00,WUHU21623XXSP,2013-10-24 15:31:00,
2013-10-24 10:36:00,39.4,29.0,30.06,WNW,292,4.9,6.5,66,0.00,,,0.00,WUHU21623XXSP,2013-10-24 15:36:00,
2013-10-24 10:41:00,39.0,28.7,30.06,NNE,22,3.8,9.8,66,0.00,,,0.00,WUHU21623XXSP,2013-10-24 15:41:00,
2013-10-24 10:46:00,38.8,28.5,30.06,West,270,6.3,11.9,66,0.00,,,0.00,WUHU21623XXSP,2013-10-24 15:46:00,
2013-10-24 10:51:00,38.3,28.4,30.06,WNW,292,6.3,11.9,67,0.00,,,0.00,WUHU21623XXSP,2013-10-24 15:51:00,
2013-10-24 10:56:00,38.1,28.5,30.06,WNW,292,2.0,11.2,68,0.00,,,0.00,WUHU21623XXSP,2013-10-24 15:56:00,
2013-10-24 11:01:00,38.5,28.9,30.06,WNW,292,0.0,13.2,68,0.00,,,0.00,WUHU21623XXSP,2013-10-24 16:01:00,
2013-10-24 11:06:00,39.0,28.7,30.06,NNW,337,3.1,13.2,66,0.00,,,0.00,WUHU21623XXSP,2013-10-24 16:06:00,
2013-10-24 11:11:00,39.7,28.9,30.06,WNW,292,6.3,13.0,65,0.00,,,0.00,WUHU21623XXSP,2013-10-24 16:11:00,
2013-10-24 11:16:00,39.7,29.3,30.07,West,270,6.0,13.0,66,0.00,,,0.00,WUHU21623XXSP,2013-10-24 16:16:00,
2013-10-24 11:21:00,39.6,29.2,30.06,West,270,6.7,9.4,66,0.00,,,0.00,WUHU21623XXSP,2013-10-24 16:21:00,
2013-10-24 11:26:00,39.7,29.3,30.06,NW,315,8.1,9.2,66,0.00,,,0.00,WUHU21623XXSP,2013-10-24 16:26:00,
2013-10-24 11:31:00,39.9,29.5,30.07,NW,315,9.4,10.7,66,0.00,,,0.00,WUHU21623XXSP,2013-10-24 16:31:00,
2013-10-24 11:36:00,39.4,29.0,30.07,West,270,0.0,11.0,66,0.00,,,0.00,WUHU21623XXSP,2013-10-24 16:36:00,
2013-10-24 11:41:00,39.0,29.0,30.07,NNW,337,2.9,11.0,67,0.00,,,0.00,WUHU21623XXSP,2013-10-24 16:41:00,
2013-10-24 11:46:00,38.8,29.2,30.07,NW,315,6.7,10.3,68,0.00,,,0.00,WUHU21623XXSP,2013-10-24 16:46:00,
2013-10-24 11:51:00,39.0,29.8,30.07,NW,315,3.6,9.6,69,0.00,,,0.00,WUHU21623XXSP,2013-10-24 16:51:00,
2013-10-24 11:56:00,39.4,29.8,30.08,South,180,3.6,8.7,68,0.00,,,0.00,WUHU21623XXSP,2013-10-24 16:56:00,
2013-10-24 12:01:00,39.2,30.0,30.07,WSW,247,5.1,13.6,69,0.00,,,0.00,WUHU21623XXSP,2013-10-24 17:01:00,
2013-10-24 12:06:00,39.4,30.2,30.08,WNW,292,3.1,13.6,69,0.00,,,0.00,WUHU21623XXSP,2013-10-24 17:06:00,
2013-10-24 12:11:00,39.4,30.2,30.07,West,270,9.6,11.9,69,0.00,,,0.00,WUHU21623XXSP,2013-10-24 17:11:00,
2013-10-24 12:16:00,39.7,30.1,30.08,WNW,292,2.7,11.9,68,0.00,,,0.00,WUHU21623XXSP,2013-10-24 17:16:00,
2013-10-24 12:21:00,39.9,30.3,30.08,North,0,3.1,9.6,68,0.00,,,0.00,WUHU21623XXSP,2013-10-24 17:21:00,
2013-10-24 12:26:00,40.3,29.9,30.08,NNW,337,2.0,10.3,66,0.00,,,0.00,WUHU21623XXSP,2013-10-24 17:26:00,
2013-10-24 12:31:00,40.3,29.9,30.08,NW,315,3.6,10.3,66,0.00,,,0.00,WUHU21623XXSP,2013-10-24 17:31:00,
2013-10-24 12:36:00,40.3,29.9,30.07,WNW,292,4.7,9.6,66,0.00,,,0.00,WUHU21623XXSP,2013-10-24 17:36:00,
2013-10-24 12:41:00,41.2,31.1,30.07,WNW,292,8.5,9.6,67,0.00,,,0.00,WUHU21623XXSP,2013-10-24 17:41:00,
2013-10-24 12:46:00,41.7,30.0,30.08,NNW,337,6.3,9.8,63,0.00,,,0.00,WUHU21623XXSP,2013-10-24 17:46:00,
2013-10-24 12:51:00,41.7,30.4,30.08,NNW,337,4.5,9.8,64,0.00,,,0.00,WUHU21623XXSP,2013-10-24 17:51:00,
2013-10-24 12:56:00,41.9,30.2,30.08,WSW,247,1.1,9.2,63,0.00,,,0.00,WUHU21623XXSP,2013-10-24 17:56:00,
2013-10-24 13:01:00,42.4,31.1,30.08,NNW,337,4.5,9.2,64,0.00,,,0.00,WUHU21623XXSP,2013-10-24 18:01:00,
2013-10-24 13:06:00,42.4,30.3,30.07,NNW,337,7.8,9.8,62,0.00,,,0.00,WUHU21623XXSP,2013-10-24 18:06:00,
2013-10-24 13:11:00,42.1,30.4,30.07,West,270,6.7,9.8,63,0.00,,,0.00,WUHU21623XXSP,2013-10-24 18:11:00,
2013-10-24 13:16:00,42.1,30.4,30.08,NNW,337,3.1,9.2,63,0.00,,,0.00,WUHU21623XXSP,2013-10-24 18:16:00,
2013-10-24 13:21:00,41.5,30.3,30.08,NW,315,3.8,9.2,64,0.00,,,0.00,WUHU21623XXSP,2013-10-24 18:21:00,
2013-10-24 13:26:00,41.5,29.4,30.07,West,270,10.5,10.5,62,0.00,,,0.00,WUHU21623XXSP,2013-10-24 18:26:00,
2013-10-24 13:31:00,41.4,29.3,30.07,NW,315,4.7,10.5,62,0.00,,,0.00,WUHU21623XXSP,2013-10-24 18:31:00,
2013-10-24 13:36:00,41.2,29.6,30.08,WNW,292,4.3,9.6,63,0.00,,,0.00,WUHU21623XXSP,2013-10-24 18:36:00,
2013-10-24 13:41:00,43.0,30.4,30.08,NNW,337,8.3,10.3,61,0.00,,,0.00,WUHU21623XXSP,2013-10-24 18:41:00,
2013-10-24 13:46:00,43.9,30.0,30.08,WNW,292,4.5,11.6,58,0.00,,,0.00,WUHU21623XXSP,2013-10-24 18:46:00,
2013-10-24 13:51:00,43.5,29.6,30.07,NNW,337,7.6,11.6,58,0.00,,,0.00,WUHU21623XXSP,2013-10-24 18:51:00,
2013-10-24 13:56:00,43.0,29.6,30.08,NW,315,3.4,10.3,59,0.00,,,0.00,WUHU21623XXSP,2013-10-24 18:56:00,
2013-10-24 14:01:00,42.4,29.5,30.08,North,0,4.7,11.9,60,0.00,,,0.00,WUHU21623XXSP,2013-10-24 19:01:00,
2013-10-24 14:06:00,41.9,29.4,30.08,WSW,247,4.3,11.9,61,0.00,,,0.00,WUHU21623XXSP,2013-10-24 19:06:00,
2013-10-24 14:11:00,41.7,29.2,30.08,WNW,292,2.0,11.9,61,0.00,,,0.00,WUHU21623XXSP,2013-10-24 19:11:00,
2013-10-24 14:16:00,42.1,29.2,30.08,West,270,6.3,11.9,60,0.00,,,0.00,WUHU21623XXSP,2013-10-24 19:16:00,
2013-10-24 14:21:00,42.3,28.9,30.07,NW,315,4.0,13.2,59,0.00,,,0.00,WUHU21623XXSP,2013-10-24 19:21:00,
2013-10-24 14:26:00,42.4,29.5,30.08,WNW,292,7.4,13.2,60,0.00,,,0.00,WUHU21623XXSP,2013-10-24 19:26:00,
2013-10-24 14:31:00,42.6,28.8,30.08,North,0,4.5,11.2,58,0.00,,,0.00,WUHU21623XXSP,2013-10-24 19:31:00,
2013-10-24 14:36:00,42.1,28.3,30.08,NW,315,6.3,17.0,58,0.00,,,0.00,WUHU21623XXSP,2013-10-24 19:36:00,
2013-10-24 14:41:00,42.6,28.3,30.08,NW,315,7.4,17.0,57,0.00,,,0.00,WUHU21623XXSP,2013-10-24 19:41:00,
2013-10-24 14:46:00,43.9,29.1,30.08,WSW,247,3.6,11.4,56,0.00,,,0.00,WUHU21623XXSP,2013-10-24 19:46:00,
2013-10-24 14:51:00,45.0,28.7,30.08,NW,315,6.3,9.4,53,0.00,,,0.00,WUHU21623XXSP,2013-10-24 19:51:00,
2013-10-24 14:56:00,45.0,28.7,30.08,NW,315,11.2,11.2,53,0.00,,,0.00,WUHU21623XXSP,2013-10-24 19:56:00,
2013-10-24 15:01:00,45.0,28.7,30.08,WSW,247,3.8,11.4,53,0.00,,,0.00,WUHU21623XXSP,2013-10-24 20:01:00,
2013-10-24 15:06:00,45.9,28.5,30.08,NW,315,3.8,11.4,51,0.00,,,0.00,WUHU21623XXSP,2013-10-24 20:06:00,
2013-10-24 15:11:00,45.1,29.3,30.08,NNW,337,8.5,10.1,54,0.00,,,0.00,WUHU21623XXSP,2013-10-24 20:11:00,
2013-10-24 15:16:00,44.2,29.4,30.09,NW,315,6.0,9.4,56,0.00,,,0.00,WUHU21623XXSP,2013-10-24 20:16:00,
2013-10-24 15:21:00,43.9,28.6,30.09,North,0,3.6,12.5,55,0.00,,,0.00,WUHU21623XXSP,2013-10-24 20:21:00,
2013-10-24 15:26:00,43.5,27.3,30.09,NW,315,8.1,12.5,53,0.00,,,0.00,WUHU21623XXSP,2013-10-24 20:26:00,
2013-10-24 15:31:00,43.3,27.6,30.09,North,0,4.5,8.7,54,0.00,,,0.00,WUHU21623XXSP,2013-10-24 20:31:00,
2013-10-24 15:36:00,43.2,27.5,30.09,West,270,1.6,9.6,54,0.00,,,0.00,WUHU21623XXSP,2013-10-24 20:36:00,
2013-10-24 15:41:00,43.3,27.1,30.10,WSW,247,5.4,11.0,53,0.00,,,0.00,WUHU21623XXSP,2013-10-24 20:41:00,
2013-10-24 15:46:00,43.0,26.8,30.10,NW,315,4.3,11.0,53,0.00,,,0.00,WUHU21623XXSP,2013-10-24 20:46:00,
2013-10-24 15:51:00,42.6,26.9,30.10,WNW,292,1.6,8.5,54,0.00,,,0.00,WUHU21623XXSP,2013-10-24 20:51:00,
2013-10-24 15:56:00,42.6,26.9,30.10,WNW,292,9.6,11.4,54,0.00,,,0.00,WUHU21623XXSP,2013-10-24 20:56:00,
2013-10-24 16:01:00,42.6,27.4,30.10,West,270,4.5,13.6,55,0.00,,,0.00,WUHU21623XXSP,2013-10-24 21:01:00,
2013-10-24 16:06:00,42.6,26.9,30.10,West,270,5.8,13.6,54,0.00,,,0.00,WUHU21623XXSP,2013-10-24 21:06:00,
2013-10-24 16:11:00,42.4,27.2,30.10,NW,315,2.0,8.3,55,0.00,,,0.00,WUHU21623XXSP,2013-10-24 21:11:00,
2013-10-24 16:16:00,42.1,26.9,30.10,NW,315,3.6,8.5,55,0.00,,,0.00,WUHU21623XXSP,2013-10-24 21:16:00,
2013-10-24 16:21:00,42.1,27.4,30.11,NW,315,4.5,8.5,56,0.00,,,0.00,WUHU21623XXSP,2013-10-24 21:21:00,
2013-10-24 16:26:00,42.1,27.4,30.10,NNW,337,7.6,8.9,56,0.00,,,0.00,WUHU21623XXSP,2013-10-24 21:26:00,
2013-10-24 16:31:00,42.1,26.9,30.10,West,270,2.2,8.9,55,0.00,,,0.00,WUHU21623XXSP,2013-10-24 21:31:00,
2013-10-24 16:36:00,42.1,27.4,30.11,WNW,292,7.6,8.7,56,0.00,,,0.00,WUHU21623XXSP,2013-10-24 21:36:00,
2013-10-24 16:41:00,41.9,27.2,30.11,NW,315,3.4,7.6,56,0.00,,,0.00,WUHU21623XXSP,2013-10-24 21:41:00,
2013-10-24 16:46:00,41.7,27.0,30.11,West,270,4.7,7.6,56,0.00,,,0.00,WUHU21623XXSP,2013-10-24 21:46:00,
2013-10-24 16:51:00,41.7,27.0,30.10,WNW,292,3.1,7.6,56,0.00,,,0.00,WUHU21623XXSP,2013-10-24 21:51:00,
2013-10-24 16:56:00,41.7,27.5,30.11,West,270,4.3,7.4,57,0.00,,,0.00,WUHU21623XXSP,2013-10-24 21:56:00,
2013-10-24 17:01:00,41.7,27.5,30.11,NW,315,2.0,6.5,57,0.00,,,0.00,WUHU21623XXSP,2013-10-24 22:01:00,
2013-10-24 17:06:00,41.5,27.7,30.11,North,0,1.6,11.4,58,0.00,,,0.00,WUHU21623XXSP,2013-10-24 22:06:00,
2013-10-24 17:11:00,41.5,28.2,30.11,West,270,5.1,11.4,59,0.00,,,0.00,WUHU21623XXSP,2013-10-24 22:11:00,
2013-10-24 17:16:00,41.7,27.9,30.11,NW,315,0.0,8.9,58,0.00,,,0.00,WUHU21623XXSP,2013-10-24 22:16:00,
2013-10-24 17:21:00,41.4,27.6,30.11,West,270,4.7,8.9,58,0.00,,,0.00,WUHU21623XXSP,2013-10-24 22:21:00,
2013-10-24 17:26:00,41.2,27.4,30.12,West,270,1.3,6.0,58,0.00,,,0.00,WUHU21623XXSP,2013-10-24 22:26:00,
2013-10-24 17:31:00,40.8,27.1,30.12,West,270,1.6,8.5,58,0.00,,,0.00,WUHU21623XXSP,2013-10-24 22:31:00,
2013-10-24 17:36:00,40.6,27.3,30.12,NW,315,0.0,13.0,59,0.00,,,0.00,WUHU21623XXSP,2013-10-24 22:36:00,
2013-10-24 17:41:00,40.6,27.8,30.12,West,270,2.0,13.0,60,0.00,,,0.00,WUHU21623XXSP,2013-10-24 22:41:00,
2013-10-24 17:46:00,40.5,27.7,30.12,West,270,1.6,5.8,60,0.00,,,0.00,WUHU21623XXSP,2013-10-24 22:46:00,
2013-10-24 17:51:00,40.1,27.7,30.12,WSW,247,2.2,3.6,61,0.00,,,0.00,WUHU21623XXSP,2013-10-24 22:51:00,
2013-10-24 17:56:00,39.9,27.5,30.12,SW,225,4.0,4.0,61,0.00,,,0.00,WUHU21623XXSP,2013-10-24 22:56:00,
2013-10-24 18:01:00,39.9,27.5,30.12,WNW,292,2.9,4.0,61,0.00,,,0.00,WUHU21623XXSP,2013-10-24 23:01:00,
2013-10-24 18:06:00,39.7,27.7,30.12,WNW,292,1.8,4.7,62,0.00,,,0.00,WUHU21623XXSP,2013-10-24 23:06:00,
2013-10-24 18:11:00,39.7,27.7,30.12,West,270,2.9,4.7,62,0.00,,,0.00,WUHU21623XXSP,2013-10-24 23:11:00,
2013-10-24 18:16:00,39.6,28.4,30.12,WSW,247,4.0,6.3,64,0.00,,,0.00,WUHU21623XXSP,2013-10-24 23:16:00,
2013-10-24 18:21:00,39.0,29.4,30.13,West,270,5.1,7.8,68,0.00,,,0.00,WUHU21623XXSP,2013-10-24 23:21:00,
2013-10-24 18:26:00,38.8,29.6,30.13,West,270,3.6,7.8,69,0.00,,,0.00,WUHU21623XXSP,2013-10-24 23:26:00,
2013-10-24 18:31:00,38.8,29.6,30.13,West,270,1.6,6.3,69,0.00,,,0.00,WUHU21623XXSP,2013-10-24 23:31:00,
2013-10-24 18:36:00,38.5,29.7,30.13,NW,315,0.0,5.4,70,0.00,,,0.00,WUHU21623XXSP,2013-10-24 23:36:00,
2013-10-24 18:41:00,38.5,29.7,30.13,NW,315,2.9,3.6,70,0.00,,,0.00,WUHU21623XXSP,2013-10-24 23:41:00,
2013-10-24 18:46:00,38.5,29.7,30.14,WNW,292,2.0,5.4,70,0.00,,,0.00,WUHU21623XXSP,2013-10-24 23:46:00,
2013-10-24 18:51:00,38.3,29.5,30.14,West,270,1.8,5.4,70,0.00,,,0.00,WUHU21623XXSP,2013-10-24 23:51:00,
2013-10-24 18:56:00,38.3,29.5,30.14,NW,315,0.0,4.5,70,0.00,,,0.00,WUHU21623XXSP,2013-10-24 23:56:00,
2013-10-24 19:01:00,38.3,29.5,30.14,NNE,22,0.0,3.8,70,0.00,,,0.00,WUHU21623XXSP,2013-10-25 00:01:00,
2013-10-24 19:06:00,38.1,29.3,30.14,WSW,247,0.0,3.8,70,0.00,,,0.00,WUHU21623XXSP,2013-10-25 00:06:00,
2013-10-24 19:11:00,38.1,29.3,30.14,WSW,247,2.5,3.1,70,0.00,,,0.00,WUHU21623XXSP,2013-10-25 00:11:00,
2013-10-24 19:16:00,37.9,29.1,30.14,WSW,247,0.7,3.8,70,0.00,,,0.00,WUHU21623XXSP,2013-10-25 00:16:00,
2013-10-24 19:21:00,38.1,29.3,30.15,West,270,3.8,4.7,70,0.00,,,0.00,WUHU21623XXSP,2013-10-25 00:21:00,
2013-10-24 19:26:00,38.3,29.1,30.15,West,270,1.6,4.7,69,0.00,,,0.00,WUHU21623XXSP,2013-10-25 00:26:00,
2013-10-24 19:31:00,38.5,29.3,30.15,NW,315,1.6,3.6,69,0.00,,,0.00,WUHU21623XXSP,2013-10-25 00:31:00,
2013-10-24 19:36:00,38.5,29.3,30.15,NW,315,0.0,3.8,69,0.00,,,0.00,WUHU21623XXSP,2013-10-25 00:36:00,
2013-10-24 19:41:00,38.3,29.1,30.16,WNW,292,1.3,3.8,69,0.00,,,0.00,WUHU21623XXSP,2013-10-25 00:41:00,
2013-10-24 19:46:00,38.3,29.1,30.15,WNW,292,2.5,3.6,69,0.00,,,0.00,WUHU21623XXSP,2013-10-25 00:46:00,
2013-10-24 19:51:00,38.5,29.3,30.15,West,270,2.0,3.6,69,0.00,,,0.00,WUHU21623XXSP,2013-10-25 00:51:00,
2013-10-24 19:56:00,38.3,29.1,30.15,WNW,292,3.1,4.5,69,0.00,,,0.00,WUHU21623XXSP,2013-10-25 00:56:00,
2013-10-24 20:01:00,38.3,29.1,30.15,West,270,0.0,4.5,69,0.00,,,0.00,WUHU21623XXSP,2013-10-25 01:01:00,
2013-10-24 20:06:00,38.3,28.7,30.15,WNW,292,0.0,2.9,68,0.00,,,0.00,WUHU21623XXSP,2013-10-25 01:06:00,
2013-10-24 20:11:00,38.1,28.9,30.16,West,270,0.0,2.9,69,0.00,,,0.00,WUHU21623XXSP,2013-10-25 01:11:00,
2013-10-24 20:16:00,37.9,28.7,30.16,WSW,247,1.6,4.9,69,0.00,,,0.00,WUHU21623XXSP,2013-10-25 01:16:00,
2013-10-24 20:21:00,37.9,28.7,30.16,West,270,1.1,4.9,69,0.00,,,0.00,WUHU21623XXSP,2013-10-25 01:21:00,
2013-10-24 20:26:00,37.9,28.7,30.16,West,270,2.2,4.0,69,0.00,,,0.00,WUHU21623XXSP,2013-10-25 01:26:00,
2013-10-24 20:31:00,37.9,28.7,30.16,WNW,292,0.0,4.0,69,0.00,,,0.00,WUHU21623XXSP,2013-10-25 01:31:00,
2013-10-24 20:36:00,37.9,28.7,30.16,West,270,4.0,5.4,69,0.00,,,0.00,WUHU21623XXSP,2013-10-25 01:36:00,
2013-10-24 20:41:00,37.9,28.7,30.16,West,270,2.0,5.6,69,0.00,,,0.00,WUHU21623XXSP,2013-10-25 01:41:00,
2013-10-24 20:46:00,37.9,28.7,30.17,West,270,0.0,5.6,69,0.00,,,0.00,WUHU21623XXSP,2013-10-25 01:46:00,
2013-10-24 20:51:00,37.8,28.6,30.17,WNW,292,4.7,5.1,69,0.00,,,0.00,WUHU21623XXSP,2013-10-25 01:51:00,
2013-10-24 20:56:00,37.8,28.6,30.17,West,270,2.7,5.8,69,0.00,,,0.00,WUHU21623XXSP,2013-10-25 01:56:00,
2013-10-24 21:01:00,37.8,28.6,30.17,West,270,2.0,5.8,69,0.00,,,0.00,WUHU21623XXSP,2013-10-25 02:01:00,
2013-10-24 21:06:00,37.6,28.4,30.17,WNW,292,2.5,5.1,69,0.00,,,0.00,WUHU21623XXSP,2013-10-25 02:06:00,
2013-10-24 21:11:00,37.6,28.4,30.17,West,270,4.3,5.6,69,0.00,,,0.00,WUHU21623XXSP,2013-10-25 02:11:00,
2013-10-24 21:16:00,37.4,28.2,30.17,WNW,292,1.1,5.6,69,0.00,,,0.00,WUHU21623XXSP,2013-10-25 02:16:00,
2013-10-24 21:21:00,37.2,28.0,30.17,West,270,1.6,4.5,69,0.00,,,0.00,WUHU21623XXSP,2013-10-25 02:21:00,
2013-10-24 21:26:00,37.0,28.2,30.17,West,270,2.5,4.3,70,0.00,,,0.00,WUHU21623XXSP,2013-10-25 02:26:00,
2013-10-24 21:31:00,36.7,27.9,30.18,NW,315,1.8,5.6,70,0.00,,,0.00,WUHU21623XXSP,2013-10-25 02:31:00,
2013-10-24 21:36:00,36.5,27.7,30.18,West,270,0.0,5.6,70,0.00,,,0.00,WUHU21623XXSP,2013-10-25 02:36:00,
2013-10-24 21:41:00,36.3,27.5,30.18,NW,315,2.9,4.7,70,0.00,,,0.00,WUHU21623XXSP,2013-10-25 02:41:00,
2013-10-24 21:46:00,36.1,27.3,30.18,WNW,292,3.8,5.4,70,0.00,,,0.00,WUHU21623XXSP,2013-10-25 02:46:00,
2013-10-24 21:51:00,36.0,27.2,30.18,WNW,292,0.0,5.4,70,0.00,,,0.00,WUHU21623XXSP,2013-10-25 02:51:00,
2013-10-24 21:56:00,35.6,26.9,30.18,West,270,2.0,5.1,70,0.00,,,0.00,WUHU21623XXSP,2013-10-25 02:56:00,
2013-10-24 22:01:00,35.2,26.5,30.19,WSW,247,2.5,3.6,70,0.00,,,0.00,WUHU21623XXSP,2013-10-25 03:01:00,
2013-10-24 22:06:00,34.9,26.5,30.19,NNW,337,0.0,2.5,71,0.00,,,0.00,WUHU21623XXSP,2013-10-25 03:06:00,
2013-10-24 22:11:00,34.7,26.3,30.19,SW,225,0.0,2.5,71,0.00,,,0.00,WUHU21623XXSP,2013-10-25 03:11:00,
2013-10-24 22:16:00,34.3,26.0,30.19,SSW,202,0.0,2.5,71,0.00,,,0.00,WUHU21623XXSP,2013-10-25 03:16:00,
2013-10-24 22:21:00,34.3,26.3,30.19,WSW,247,0.0,2.2,72,0.00,,,0.00,WUHU21623XXSP,2013-10-25 03:21:00,
2013-10-24 22:26:00,34.2,26.2,30.19,SSW,202,0.0,2.2,72,0.00,,,0.00,WUHU21623XXSP,2013-10-25 03:26:00,
2013-10-24 22:31:00,33.8,26.2,30.19,SSW,202,0.0,1.3,73,0.00,,,0.00,WUHU21623XXSP,2013-10-25 03:31:00,
2013-10-24 22:36:00,33.4,25.8,30.19,West,270,0.0,1.3,73,0.00,,,0.00,WUHU21623XXSP,2013-10-25 03:36:00,
2013-10-24 22:41:00,33.1,25.8,30.19,South,180,0.0,0.0,74,0.00,,,0.00,WUHU21623XXSP,2013-10-25 03:41:00,
2013-10-24 22:46:00,32.9,25.6,30.19,WNW,292,0.0,0.0,74,0.00,,,0.00,WUHU21623XXSP,2013-10-25 03:46:00,
2013-10-24 22:51:00,32.7,25.4,30.19,North,0,0.0,0.0,74,0.00,,,0.00,WUHU21623XXSP,2013-10-25 03:51:00,
2013-10-24 22:56:00,32.2,25.3,30.19,North,0,0.0,0.0,75,0.00,,,0.00,WUHU21623XXSP,2013-10-25 03:56:00,
2013-10-24 23:01:00,31.8,25.2,30.19,North,0,0.0,0.0,76,0.00,,,0.00,WUHU21623XXSP,2013-10-25 04:01:00,
2013-10-24 23:06:00,31.3,24.7,30.19,North,0,0.0,0.0,76,0.00,,,0.00,WUHU21623XXSP,2013-10-25 04:06:00,
2013-10-24 23:11:00,30.9,24.6,30.19,North,0,0.0,0.0,77,0.00,,,0.00,WUHU21623XXSP,2013-10-25 04:11:00,
2013-10-24 23:16:00,30.7,24.4,30.20,SSW,202,0.0,2.2,77,0.00,,,0.00,WUHU21623XXSP,2013-10-25 04:16:00,
2013-10-24 23:21:00,30.4,24.5,30.20,SSW,202,0.0,2.2,78,0.00,,,0.00,WUHU21623XXSP,2013-10-25 04:21:00,
2013-10-24 23:26:00,30.0,24.4,30.20,SSW,202,0.0,0.0,79,0.00,,,0.00,WUHU21623XXSP,2013-10-25 04:26:00,
2013-10-24 23:31:00,29.8,24.2,30.20,SSW,202,0.0,0.0,79,0.00,,,0.00,WUHU21623XXSP,2013-10-25 04:31:00,
2013-10-24 23:36:00,29.5,24.2,30.20,SSW,202,0.0,0.0,80,0.00,,,0.00,WUHU21623XXSP,2013-10-25 04:36:00,
2013-10-24 23:41:00,29.5,23.9,30.20,SSW,202,0.0,0.0,79,0.00,,,0.00,WUHU21623XXSP,2013-10-25 04:41:00,
2013-10-24 23:46:00,29.3,24.0,30.21,SSW,202,0.0,0.0,80,0.00,,,0.00,WUHU21623XXSP,2013-10-25 04:46:00,
2013-10-24 23:51:00,29.1,24.1,30.20,SSW,202,0.0,0.0,81,0.00,,,0.00,WUHU21623XXSP,2013-10-25 04:51:00,
2013-10-24 23:56:00,29.1,24.1,30.20,SSW,202,0.0,0.0,81,0.00,,,0.00,WUHU21623XXSP,2013-10-25 04:56:00,